When you browse on this site, cookies collect data to enhance your experience and personalize the content and advertising you see.
Visit our Privacy Policy to learn more. By continuing to use the site, you agree to this use of cookies and data.
  • în România
  • Lista ţărilor
  • Pe 7 zile
  • Temperatura apei
  • Hartă satelitară
  • Meteo pe hartă
  • Widget-uri
  • user-avatar
    Intrare

    Meteo pe oră la Rassvet

    Astăzi, 25 Martie, Luni

    Timp Temperatura Precipitaţii Vânt Presiune Umiditate
    00:00 -2°C° 0.4 mm 5 m/s 744 mmHg 94%
    01:00 -1°C° 1.8 mm 5 m/s 743 mmHg 94%
    02:00 -1°C° 1.8 mm 5 m/s 741 mmHg 95%
    03:00 -1°C° 1.8 mm 5 m/s 740 mmHg 95%
    04:00 -1°C° 0.4 mm 5 m/s 739 mmHg 95%
    05:00 -1°C° 0.4 mm 5 m/s 738 mmHg 95%
    06:00 -1°C° 0.4 mm 5 m/s 737 mmHg 94%
    07:00 -1°C° 0.1 mm 5 m/s 737 mmHg 95%
    08:00 -1°C° 0.1 mm 5 m/s 737 mmHg 95%
    09:00 -1°C° 0.1 mm 5 m/s 737 mmHg 96%
    10:00 -2°C° 0.4 mm 6 m/s 737 mmHg 93%
    11:00 -2°C° 0.4 mm 7 m/s 737 mmHg 91%
    12:00 -2°C° 0.4 mm 8 m/s 738 mmHg 89%
    13:00 -2°C° 0.4 mm 8 m/s 738 mmHg 88%
    14:00 -2°C° 0.4 mm 8 m/s 739 mmHg 87%
    15:00 -2°C° 0.4 mm 7 m/s 740 mmHg 86%
    16:00 -2°C° 0.3 mm 7 m/s 741 mmHg 86%
    17:00 -2°C° 0.3 mm 6 m/s 741 mmHg 87%
    18:00 -1°C° 0.3 mm 5 m/s 742 mmHg 87%
    19:00 -2°C° 0.1 mm 5 m/s 743 mmHg 86%
    20:00 -2°C° 0.1 mm 5 m/s 744 mmHg 86%
    21:00 -2°C° 0.1 mm 5 m/s 745 mmHg 85%
    22:00 -4°C° 0 mm 5 m/s 745 mmHg 86%
    23:00 -4°C° 0 mm 5 m/s 746 mmHg 87%

    Mâine, 26 Martie, Marţi

    Timp Temperatura Precipitaţii Vânt Presiune Umiditate
    00:00 -4°C° 0 mm 5 m/s 747 mmHg 88%
    01:00 -4°C° 0 mm 5 m/s 747 mmHg 89%
    02:00 -5°C° 0 mm 5 m/s 748 mmHg 89%
    03:00 -4°C° 0 mm 4 m/s 749 mmHg 90%
    04:00 -5°C° 0 mm 4 m/s 749 mmHg 91%
    05:00 -5°C° 0 mm 4 m/s 750 mmHg 91%
    06:00 -5°C° 0 mm 4 m/s 750 mmHg 92%
    07:00 -4°C° 0 mm 4 m/s 751 mmHg 91%
    08:00 -3°C° 0 mm 4 m/s 751 mmHg 90%
    09:00 -2°C° 0 mm 4 m/s 751 mmHg 89%
    10:00 -2°C° 0 mm 4 m/s 752 mmHg 90%
    11:00 -1°C° 0 mm 4 m/s 752 mmHg 90%
    12:00 -1°C° 0 mm 4 m/s 752 mmHg 91%
    13:00 -1°C° 0 mm 4 m/s 752 mmHg 89%
    14:00 -1°C° 0 mm 4 m/s 752 mmHg 87%
    15:00 -1°C° 0 mm 4 m/s 752 mmHg 85%
    16:00 -1°C° 0 mm 4 m/s 751 mmHg 85%
    17:00 -1°C° 0 mm 4 m/s 751 mmHg 85%
    18:00 -2°C° 0 mm 4 m/s 751 mmHg 85%
    19:00 -2°C° 0.3 mm 5 m/s 750 mmHg 86%
    20:00 -2°C° 0.3 mm 6 m/s 750 mmHg 87%
    21:00 -2°C° 0.3 mm 6 m/s 749 mmHg 88%
    22:00 -2°C° 0.9 mm 6 m/s 749 mmHg 89%
    23:00 -1°C° 0.9 mm 6 m/s 749 mmHg 91%

    Poimâine, 27 Martie, Miercuri

    Timp Temperatura Precipitaţii Vânt Presiune Umiditate
    00:00 -1°C° 0.9 mm 6 m/s 748 mmHg 92%
    01:00 -1°C° 1.4 mm 7 m/s 748 mmHg 91%
    02:00 -1°C° 1.4 mm 7 m/s 748 mmHg 91%
    03:00 0°C° 1.4 mm 7 m/s 748 mmHg 91%
    04:00 -1°C° 0.7 mm 7 m/s 748 mmHg 91%
    05:00 -1°C° 0.7 mm 6 m/s 747 mmHg 92%
    06:00 -1°C° 0.7 mm 6 m/s 747 mmHg 92%
    07:00 -1°C° 0.9 mm 6 m/s 748 mmHg 93%
    08:00 -1°C° 0.9 mm 6 m/s 748 mmHg 94%
    09:00 -1°C° 0.9 mm 6 m/s 748 mmHg 95%
    10:00 -1°C° 0.9 mm 6 m/s 748 mmHg 95%
    11:00 -1°C° 0.9 mm 6 m/s 749 mmHg 96%
    12:00 -1°C° 0.9 mm 6 m/s 749 mmHg 96%
    13:00 0°C° 0.3 mm 5 m/s 749 mmHg 97%
    14:00 0°C° 0.3 mm 4 m/s 750 mmHg 98%
    15:00 0°C° 0.3 mm 4 m/s 750 mmHg 99%
    16:00 +1°C° 0 mm 3 m/s 750 mmHg 98%
    17:00 0°C° 0 mm 3 m/s 751 mmHg 98%
    18:00 +1°C° 0 mm 2 m/s 751 mmHg 98%
    19:00 -1°C° 0 mm 2 m/s 751 mmHg 97%
    20:00 -1°C° 0 mm 2 m/s 752 mmHg 96%
    21:00 -2°C° 0 mm 2 m/s 752 mmHg 96%
    22:00 -2°C° 0 mm 2 m/s 752 mmHg 94%
    23:00 -1°C° 0 mm 1 m/s 752 mmHg 93%

    28 Martie, Joi

    Timp Temperatura Precipitaţii Vânt Presiune Umiditate
    00:00 -1°C° 0 mm 1 m/s 752 mmHg 91%
    01:00 -1°C° 0 mm 1 m/s 752 mmHg 89%
    02:00 -2°C° 0 mm 1 m/s 752 mmHg 87%
    03:00 -2°C° 0 mm 1 m/s 752 mmHg 85%
    04:00 -2°C° 0 mm 1 m/s 752 mmHg 84%
    05:00 -2°C° 0 mm 1 m/s 752 mmHg 83%
    06:00 -2°C° 0 mm 1 m/s 752 mmHg 83%
    07:00 -1°C° 0 mm 1 m/s 752 mmHg 80%
    08:00 0°C° 0 mm 1 m/s 752 mmHg 78%
    09:00 +1°C° 0 mm 1 m/s 752 mmHg 75%
    10:00 +1°C° 0 mm 1 m/s 752 mmHg 75%
    11:00 +1°C° 0 mm 2 m/s 752 mmHg 75%
    12:00 +1°C° 0 mm 2 m/s 752 mmHg 75%
    13:00 +1°C° 0 mm 2 m/s 752 mmHg 76%
    14:00 0°C° 0 mm 3 m/s 752 mmHg 78%
    15:00 0°C° 0 mm 3 m/s 752 mmHg 80%
    16:00 0°C° 0 mm 3 m/s 752 mmHg 84%
    17:00 -1°C° 0 mm 3 m/s 752 mmHg 87%
    18:00 -1°C° 0 mm 2 m/s 752 mmHg 90%
    19:00 -1°C° 0 mm 3 m/s 752 mmHg 91%
    20:00 -1°C° 0 mm 3 m/s 753 mmHg 93%
    21:00 -2°C° 0 mm 4 m/s 753 mmHg 94%
    22:00 -3°C° 0 mm 4 m/s 753 mmHg 93%
    23:00 -3°C° 0 mm 4 m/s 753 mmHg 93%

    29 Martie, Vineri

    Timp Temperatura Precipitaţii Vânt Presiune Umiditate
    00:00 -3°C° 0 mm 4 m/s 753 mmHg 92%
    01:00 -4°C° 0 mm 4 m/s 753 mmHg 91%
    02:00 -4°C° 0 mm 4 m/s 753 mmHg 90%
    03:00 -5°C° 0 mm 4 m/s 754 mmHg 89%
    04:00 -5°C° 0 mm 4 m/s 754 mmHg 88%
    05:00 -5°C° 0 mm 4 m/s 754 mmHg 87%
    06:00 -6°C° 0 mm 3 m/s 754 mmHg 86%
    07:00 -5°C° 0 mm 3 m/s 754 mmHg 84%
    08:00 -4°C° 0 mm 3 m/s 754 mmHg 81%
    09:00 -2°C° 0 mm 3 m/s 754 mmHg 78%
    10:00 -1°C° 0 mm 3 m/s 754 mmHg 74%
    11:00 -2°C° 0 mm 4 m/s 753 mmHg 71%
    12:00 -1°C° 0 mm 4 m/s 753 mmHg 68%
    13:00 -1°C° 0 mm 4 m/s 752 mmHg 68%
    14:00 -1°C° 0 mm 4 m/s 752 mmHg 69%
    15:00 0°C° 0 mm 4 m/s 751 mmHg 69%
    16:00 -1°C° 0.2 mm 4 m/s 751 mmHg 75%
    17:00 -1°C° 0.2 mm 4 m/s 750 mmHg 80%
    18:00 -2°C° 0.2 mm 4 m/s 750 mmHg 86%
    19:00 -2°C° 0.1 mm 4 m/s 749 mmHg 88%
    20:00 -2°C° 0.1 mm 4 m/s 749 mmHg 90%
    21:00 -2°C° 0.1 mm 4 m/s 749 mmHg 92%
    22:00 -1°C° 0.1 mm 3 m/s 749 mmHg 92%
    23:00 -2°C° 0.1 mm 3 m/s 750 mmHg 93%

    30 Martie, Sâmbătă

    Timp Temperatura Precipitaţii Vânt Presiune Umiditate
    00:00 -2°C° 0.1 mm 2 m/s 750 mmHg 94%
    01:00 -2°C° 0 mm 2 m/s 750 mmHg 94%
    02:00 0°C° 0 mm 1 m/s 751 mmHg 94%
    03:00 0°C° 0 mm 1 m/s 751 mmHg 94%
    04:00 0°C° 0 mm 1 m/s 751 mmHg 94%
    05:00 0°C° 0 mm 1 m/s 752 mmHg 94%
    06:00 0°C° 0 mm 1 m/s 752 mmHg 94%
    07:00 +1°C° 0 mm 1 m/s 753 mmHg 91%
    08:00 +1°C° 0 mm 1 m/s 753 mmHg 89%
    09:00 +2°C° 0 mm 1 m/s 754 mmHg 87%
    10:00 +2°C° 0 mm 1 m/s 754 mmHg 84%
    11:00 +2°C° 0 mm 2 m/s 754 mmHg 81%
    12:00 +2°C° 0 mm 2 m/s 754 mmHg 79%
    13:00 +2°C° 0 mm 2 m/s 754 mmHg 79%
    14:00 +2°C° 0 mm 2 m/s 755 mmHg 78%
    15:00 +2°C° 0 mm 2 m/s 755 mmHg 78%
    16:00 +2°C° 0 mm 2 m/s 755 mmHg 81%
    17:00 +2°C° 0 mm 2 m/s 755 mmHg 83%
    18:00 +1°C° 0 mm 2 m/s 755 mmHg 85%
    19:00 -1°C° 0 mm 2 m/s 755 mmHg 87%
    20:00 -1°C° 0 mm 2 m/s 755 mmHg 89%
    21:00 -2°C° 0 mm 2 m/s 755 mmHg 91%
    22:00 -2°C° 0 mm 2 m/s 755 mmHg 92%
    23:00 -2°C° 0 mm 2 m/s 755 mmHg 93%
    Arată mai mult